Location: Marcé
(47.5801°N, 0.3280°W)
Time: 15:42:48
(UTC+01:00)

SR - Pass Details

Date: 30 November 2021
Orbit: 582 x 872 km, 66.7° (Epoch: 22 January)

Event Time Altitude Azimuth Distance (km) Brightness Sun altitude
Rises 02:13:13 0° 228° (SW) 2,980 - -59.1°
Reaches altitude 10° 02:15:38 10° 234° (SW) 2,030 - -58.9°
Maximum altitude 02:20:02 48° 309° (NW) 800 - -58.4°
Drops below altitude 10° 02:24:14 10° 25° (NNE) 1,934 - -57.9°
Sets 02:26:30 0° 32° (NNE) 2,823 - -57.6°
